Regional Weather Roundup
Issued by NWS Sterling, VA

Home | Current Version | Previous Version | Graphics & Text | Print | Product List | Glossary On
Versions: 1 2 3 4 5 6 7 8 9 10 11 12 13 14 15 16 17 18 19 20 21 22 23 24 25 26 27 28 29 30 31 32 33 34 35 36 37 38 39 40 41 42 43 44 45 46 47 48 49 50
000
ASUS41 KLWX 200610
RWRLWX

REGIONAL WEATHER ROUNDUP
NATIONAL WEATHER SERVICE BALTIMORE MD/WASHINGTON DC
200 AM EDT SAT SEP 20 2014

Note: "FAIR" indicates few or no clouds below 12,000 feet
with no significant weather and/or obstructions to visibility.
 TC=TEMPERATURE CELSIUS

 * =Non NWS site. Station does not report precipitation (e.g. rain,
    snow, etc.), thunder, or fog.

DCZ001-MDZ009-015-VAZ040>042-051-053>054-200700-
WASHINGTON METRO

CITY           SKY/WX    TMP DP  RH WIND       PRES   REMARKS
WASHINGTON NAT MOCLDY    67  59  75 CALM      30.29S
DULLES         CLOUDY    63  60  90 SE9       30.27F
ANDREWS AFB    MOCLDY    60  60  99 NE2       30.28S
QUANTICO       MOCLDY    66  61  84 SE5       30.28F
COLLEGE PARK*  MOCLDY    61  61 100 CALM      30.28F
LEESBURG*      CLOUDY    64  63  94 SE6       30.28F
MANASSAS*      CLOUDY    63  63 100 CALM      30.27F
GAITHERSBURG*  CLOUDY    63  59  88 E7        30.32F

$$

MDZ006>007-011-014-200700-
BALTIMORE METRO

CITY           SKY/WX    TMP DP  RH WIND       PRES   REMARKS
BWI AIRPORT    CLOUDY    63  60  90 E7        30.28F
MD SCIENCE CTR   N/A     64  59  83 MISG      30.29F
MARTIN STATE   PTCLDY    63  61  94 E3        30.30F
ANNAPOLIS        N/A     65  61  87 E7        30.28F
FORT MEADE*    CLOUDY    59  57  94 E5        30.30F

$$

MDZ012-015-019>023-200700-
MARYLAND EASTERN SHORE

CITY           SKY/WX    TMP DP  RH WIND       PRES   REMARKS
OCEAN CITY     PTCLDY    70  60  70 SE13G23   30.27F
SALISBURY      CLEAR     59  55  87 CALM      30.26F
BAY BRIDGE AP*   N/A     61  59  94 E6        30.28F
CAMBRIDGE*     CLEAR     59  55  88 CALM      30.26F
EASTON*        CLEAR     60  60 100 CALM      30.32S FOG

$$

MDZ017>025-200700-
SOUTHERN MARYLAND

CITY           SKY/WX    TMP DP  RH WIND       PRES   REMARKS
PATUXENT RIVER PTCLDY    68  62  81 E13       30.25F
ST INIGOES     CLEAR     62  56  80 E3        30.25F
LEONARDTOWN*   CLEAR     63  59  88 CALM      30.27F

$$

MDZ003>005-200700-
NORTH CENTRAL MARYLAND

CITY           SKY/WX    TMP DP  RH WIND       PRES   REMARKS
FREDERICK*     CLOUDY    66  61  82 CALM      30.30S
HAGERSTOWN APT CLOUDY    64  58  80 S9G16     30.27R
WESTMINSTER*   CLOUDY    61  57  88 SE7       30.29S

$$

MDZ501>502-200700-
WESTERN MARYLAND

CITY           SKY/WX    TMP DP  RH WIND       PRES   REMARKS
OAKLAND*       PTCLDY    52 N/A N/A SE12      30.25S
CUMBERLAND*    CLOUDY    64  55  72 CALM      30.28R

$$

VAZ025>031-200700-
SHENANDOAH VALLEY

CITY           SKY/WX    TMP DP  RH WIND       PRES   REMARKS
WINCHESTER*    CLOUDY    64  59  82 SE3       30.26S
STAUNTON*      CLOUDY    61  57  86 CALM      30.28F

$$

WVZ021-048>050-054>055-200700-
EASTERN WEST VIRGINIA PANHANDLE

CITY           SKY/WX    TMP DP  RH WIND       PRES   REMARKS
MARTINSBURG    CLOUDY    65  58  78 S5        30.27S
PETERSBURG*    CLOUDY    62  58  87 E3        30.25S

$$

VAZ036>039-050-200700-
CENTRAL FOOTHILLS

CITY           SKY/WX    TMP DP  RH WIND       PRES   REMARKS
CHARLOTTESVILL CLOUDY    62  60  93 CALM      30.26F
ORANGE*        CLOUDY    61  55  82 CALM      30.28F

$$

VAZ055>057-200700-
NORTH AND CENTRAL PIEDMONT

CITY           SKY/WX    TMP DP  RH WIND       PRES   REMARKS
FREDERICKSBRG* PTCLDY    60  60 100 S3        30.26F
STAFFORD*      CLOUDY    59  59 100 CALM      30.31S

$$

NCZ024-NYZ072-PAZ021-071-VAZ022-071-200700-
OTHER REGIONAL OBSERVATIONS

CITY           SKY/WX    TMP DP  RH WIND       PRES   REMARKS
NEW YORK CITY  CLEAR     59  48  67 VRB3      30.35F
PHILADELPHIA   PTCLDY    58  54  86 E5        30.31F
PITTSBURGH     CLEAR     59  54  83 S5        30.15S
ROANOKE        CLOUDY    61  59  93 W3        30.29S
RICHMOND       PTCLDY    64  58  80 NE6       30.26F
RALEIGH        PTCLDY    62  56  80 E5        30.25S

$$

ANZ530>537-200700-
MARINE OBSERVATIONS

STATION/POSITION TIME  TEMP    WIND        PRES
                       AIR SEA DIR/SP/G
                 (UTC) (F)     (DEG/KT/KT) (MB)
THOMAS PT LIGHT  0600   66 73  110/ 12/ 13 1026.1F
BALT KEY BRIDGE  0600   63      80/  9/ 10 1025.4F
COVE POINT       0600   67     150/ 11/ 15 1024.6F
LEWISETTA        0600   68 73  160/  7/  8 1024.2F
SOLOMONS ISLAND  0600      76                N/A
PINEY POINT      0600          140/ 16/ 17   N/A

$$



USA.gov is the U.S. government's official web portal to all federal, state and local government web resources and services.